2023/03/12 00:00:00,79.0, 5.4
2023/03/12 00:10:00,79.0, 5.5
2023/03/12 00:20:00,79.1, 5.6
2023/03/12 00:30:00,79.0, 5.2
2023/03/12 00:40:00,78.9, 5.5
2023/03/12 00:50:00,78.8, 5.5
2023/03/12 01:00:00,78.7, 5.6
2023/03/12 01:10:00,78.6, 4.6
2023/03/12 01:20:00,78.5, 4.8
2023/03/12 01:30:00,78.3, 5.1
2023/03/12 01:40:00,78.1, 5.1
2023/03/12 01:50:00,77.9, 5.1
2023/03/12 02:00:00,77.8, 5.3
2023/03/12 02:10:00,77.8, 5.1
2023/03/12 02:20:00,77.8, 4.3
2023/03/12 02:30:00,77.8, 4.7
2023/03/12 02:40:00,77.7, 4.8
2023/03/12 02:50:00,77.8, 4.5
2023/03/12 03:00:00,77.8, 4.7
2023/03/12 03:10:00,77.7, 4.6
2023/03/12 03:20:00,77.7, 4.6
2023/03/12 03:30:00,77.7, 4.1
2023/03/12 03:40:00,77.7, 4.6
2023/03/12 03:50:00,77.6, 4.3
2023/03/12 04:00:00,77.4, 4.4
2023/03/12 04:10:00,77.6, 4.6
2023/03/12 04:20:00,77.6, 4.6
2023/03/12 04:30:00,77.5, 4.5
2023/03/12 04:40:00,77.5, 4.4
2023/03/12 04:50:00,77.4, 4.3
2023/03/12 05:00:00,77.3, 4.2
2023/03/12 05:10:00,77.3, 3.9
2023/03/12 05:20:00,77.2, 3.6
2023/03/12 05:30:00,77.3, 3.8
2023/03/12 05:40:00,77.1, 4.4
2023/03/12 05:50:00,77.1, 4.1
2023/03/12 06:00:00,77.3, 4.3
2023/03/12 06:10:00,76.9, 3.6
2023/03/12 06:20:00,76.8, 3.8
2023/03/12 06:30:00,76.8, 3.8
2023/03/12 06:40:00,76.8, 4.0
2023/03/12 06:50:00,76.8, 3.7
2023/03/12 07:00:00,76.8, 4.0
2023/03/12 07:10:00,76.8, 4.1
2023/03/12 07:20:00,76.8, 3.9
2023/03/12 07:30:00,76.9, 4.6
2023/03/12 07:40:00,77.0, 4.9
2023/03/12 07:50:00,76.9, 5.0
2023/03/12 08:00:00,76.9, 5.3
2023/03/12 08:10:00,76.8, 5.9
2023/03/12 08:20:00,76.9, 6.0
2023/03/12 08:30:00,77.0, 7.2
2023/03/12 08:40:00,76.9, 6.9
2023/03/12 08:50:00,77.1, 6.9
2023/03/12 09:00:00,77.1, 7.7
2023/03/12 09:10:00,77.1, 8.2
2023/03/12 09:20:00,77.0, 9.0
2023/03/12 09:30:00,77.1, 9.3
2023/03/12 09:40:00,77.2, 9.7
2023/03/12 09:50:00,77.1,10.4
2023/03/12 10:00:00,77.3,10.9
2023/03/12 10:10:00,122.7,10.7
2023/03/12 10:20:00,153.3,10.9
2023/03/12 10:30:00,153.5,11.7
2023/03/12 10:40:00,153.2,11.2
2023/03/12 10:50:00,153.1,11.4
2023/03/12 11:00:00,150.7,11.8
2023/03/12 11:10:00,126.3,12.0
2023/03/12 11:20:00,73.5,12.2
2023/03/12 11:30:00,72.4,12.2
2023/03/12 11:40:00,71.7,12.2
2023/03/12 11:50:00,71.1,11.7
2023/03/12 12:00:00,70.5,11.9
2023/03/12 12:10:00,69.9,11.3
2023/03/12 12:20:00,70.0,11.7
2023/03/12 12:30:00,70.1,11.5
2023/03/12 12:40:00,69.9,12.0
2023/03/12 12:50:00,69.2,12.2
2023/03/12 13:00:00,68.6,12.3
2023/03/12 13:10:00,68.9,12.9
2023/03/12 13:20:00,68.6,13.3
2023/03/12 13:30:00,68.6,13.4
2023/03/12 13:40:00,68.6,13.4
2023/03/12 13:50:00,68.5,13.3
2023/03/12 14:00:00,68.4,13.3
2023/03/12 14:10:00,68.4,13.4
2023/03/12 14:20:00,68.3,13.2
2023/03/12 14:30:00,68.2,13.7
2023/03/12 14:40:00,68.2,12.4
2023/03/12 14:50:00,67.9,12.5
2023/03/12 15:00:00,67.4,13.2
2023/03/12 15:10:00,67.1,12.4
2023/03/12 15:20:00,66.7,11.6
2023/03/12 15:30:00,66.6,11.3
2023/03/12 15:40:00,66.6,10.4
2023/03/12 15:50:00,66.3, 9.8
2023/03/12 16:00:00,66.1, 9.3
2023/03/12 16:10:00,66.0, 8.9
2023/03/12 16:20:00,66.1, 8.2
2023/03/12 16:30:00,66.1, 9.7
2023/03/12 16:40:00,66.1,10.3
2023/03/12 16:50:00,65.8,10.3
2023/03/12 17:00:00,65.5, 9.5
2023/03/12 17:10:00,65.5, 9.0
2023/03/12 17:20:00,65.7, 9.2
2023/03/12 17:30:00,65.7, 8.1
2023/03/12 17:40:00,65.6, 8.5
2023/03/12 17:50:00,65.7, 7.1
2023/03/12 18:00:00,65.6, 6.9
2023/03/12 18:10:00,65.6, 6.9
2023/03/12 18:20:00,65.4, 7.0
2023/03/12 18:30:00,65.4, 6.0
2023/03/12 18:40:00,65.3, 6.0
2023/03/12 18:50:00,65.6, 6.4
2023/03/12 19:00:00,66.0, 5.8
2023/03/12 19:10:00,65.8, 6.5
2023/03/12 19:20:00,65.5, 7.2
2023/03/12 19:30:00,65.3, 7.5
2023/03/12 19:40:00,65.3, 7.6
2023/03/12 19:50:00,65.4, 7.8
2023/03/12 20:00:00,65.7, 7.4
2023/03/12 20:10:00,65.6, 7.2
2023/03/12 20:20:00,65.5, 7.8
2023/03/12 20:30:00,65.5, 7.8
2023/03/12 20:40:00,65.4, 7.7
2023/03/12 20:50:00,65.5, 7.4
2023/03/12 21:00:00,65.3, 7.4
2023/03/12 21:10:00,64.9, 7.6
2023/03/12 21:20:00,64.3, 7.7
2023/03/12 21:30:00,64.1, 7.7
2023/03/12 21:40:00,63.8, 7.9
2023/03/12 21:50:00,63.4, 7.9
2023/03/12 22:00:00,63.1, 7.7
2023/03/12 22:10:00,63.3, 6.8
2023/03/12 22:20:00,63.1, 6.0
2023/03/12 22:30:00,62.9, 5.7
2023/03/12 22:40:00,62.6, 5.5
2023/03/12 22:50:00,62.6, 5.3
2023/03/12 23:00:00,62.4, 4.8
2023/03/12 23:10:00,62.3, 4.9
2023/03/12 23:20:00,62.4, 4.5
2023/03/12 23:30:00,62.4, 4.3
2023/03/12 23:40:00,62.0, 4.1
2023/03/12 23:50:00,61.9, 4.6
